SJ-11-07

Satellite information

Favourite Embed

Satellite Type and Status

PAYLOADIN ORBIT

Key statistics

Satellite SJ-11-07 at a glance.

Uptime

4094

Days in orbit

Revolutions

≈ 14.6

Per day

Orbit

SSO

Sun Synchronous Orbit

Inclination

98.0

Latest

Satellite identification and parameters

Extended collection of information and parameters for SJ-11-07.

Object identification

Identified? True

Debris? False

Object name: SJ-11-07

International designator: 2014-059A

Object number (NORAD): 40261

Object ID (CCSDS): 40261

Country: PEOPLES REPUBLIC OF CHINA (PRC)

Current information (Y/N): Y

RCS size: LARGE

Orbital parameters

Period: 98.396 minutes

Inclination: 98.0177 deg

SMA: 7060.104 km

Apoapsis: 689.899 km

Periapsis: 674.038 km

RAAN: 55.9392 deg

Eccentricy: 0.00112325

Argument of periapsis: 26.0322 deg

Mean anomaly: 334.1443 deg

Mean motion: 14.63477869 rev/day

Mean motion (dot): 0.00001222 rev/day2

B* drag term: 0.00024470099 1/REarth

Two-line elements (TLE)

Creation date: Dec. 12, 2025, 10:14 a.m.

Reference frame: TEME

Reference center: EARTH

Epoch: Dec. 12, 2025, 6:13 a.m. UTC

TLE line 0: 0 SJ-11-07

TLE line 1: 1 40261U 14059A 25346.25939388 .00001222 00000-0 24470-3 0 9996

TLE line 2: 2 40261 98.0177 55.9392 0011233 26.0322 334.1443 14.63477869597575

Live tracking on map

Real-time ground track for satellite SJ-11-07.

In-orbit conjunctions

There are no conjunctions computed for SJ-11-07, at the moment. Check back to stay up to date, as we update our databases every day.

Go to all conjunctions

Associated space launch

SJ-11-07 was lifted into orbit during the mission ‘Long March 2C | Shijian 11-07’, on board a Long March 2 space rocket.

The launch took place on Sept. 28, 2014, 5:13 a.m. from Launch Area 94 (SLS-2 / 603).

For more information about the launch, click the button.

Launch to space Long March 2C | Shijian 11-07
Long March 2C | Shijian 11-07

Agency: N/A

Status: Launch Successful

Launch date: Sept. 28, 2014, 5:13 a.m. UTC

Rocket: Long March 2

Launch pad: Launch Area 94 (SLS-2 / 603)

Location: Jiuquan Satellite Launch Center, People's Republic of China

...

Latest news about this satellite

There are no fresh news available about this satellite. Check back as we update our databases every day.


Newsletter sign-up

Weekly statistics, charts and insights to help you stay on top of the space industry.